Universal City, TX

5:56 PM CDT on August 31, 2016 (GMT -0500)
Randolph Air Force Base

Weather History for KRND - December, 2012

Change the Weather History Date:

Monday, December 10, 2012

  Actual Average Record
Temperature  
Mean Temperature 46 °F -  
Max Temperature 55 °F 62 °F 78 °F (1996)
Min Temperature 36 °F 41 °F 29 °F (2013)
Degree Days  
Heating Degree Days 18    
Moisture  
Dew Point 27 °F    
Average Humidity 46    
Maximum Humidity 77    
Minimum Humidity 31    
Precipitation  
Precipitation 0.00 in - - ()
Sea Level Pressure  
Sea Level Pressure 30.04 in    
Wind  
Wind Speed 13 mph (North)    
Max Wind Speed 24 mph    
Max Gust Speed 40 mph    
Visibility 10 miles    
Events      
Averages and records for this station are not official NWS values.
T = Trace of Precipitation, MM = Missing Value Source: NWS Daily Summary

Daily Weather History Graph

Daily Weather History Graph

Search for Another Location

Airport or City:

Trip Planner

Search our weather history database for the weather conditions in past years. The results will help you decide how hot, cold, wet, or windy it might be!

Date:

Astronomy

Dec. 10, 2012 Rise Set
Actual Time 7:17 AM CST 5:34 PM CST
Civil Twilight 6:51 AM CST 6:01 PM CST
Nautical Twilight 6:21 AM CST 6:30 PM CST
Astronomical Twilight 5:52 AM CST 6:59 PM CST
Moon 4:10 AM CST (12/10) 3:18 PM CST (12/10)
Length of Visible Light 11h 09m
Length of Day
10h 17m
Waning Crescent, 10% of the Moon is Illuminated
Dec 10
Waning Crescent
Dec 13
New
Dec 19
First Quarter
Dec 28
Full
Jan 4
Last Quarter

Hourly Weather History & Observations

Time (CST) Temp. Windchill Dew Point Humidity Pressure Visibility Wind Dir Wind Speed Gust Speed Precip Events Conditions
12:40 AM 55.4 °F - 48.2 °F 77% 29.89 in 10.0 mi NNE 10.4 mph - N/A   Overcast
12:45 AM 55.4 °F - 46.4 °F 72% 29.90 in 10.0 mi NNE 8.1 mph 19.6 mph N/A   Overcast
12:55 AM 55.2 °F - 47.5 °F 75% 29.90 in 10.0 mi North 10.4 mph - N/A   Overcast
1:30 AM 55.4 °F - 46.4 °F 72% 29.91 in 10.0 mi North 12.7 mph 21.9 mph N/A   Overcast
1:55 AM 54.3 °F - 43.9 °F 68% 29.91 in 10.0 mi NNE 12.7 mph 19.6 mph N/A   Overcast
1:57 AM 53.6 °F - 44.6 °F 72% 29.91 in 10.0 mi North 15.0 mph 20.7 mph N/A   Overcast
2:44 AM 53.6 °F - 41.0 °F 62% 29.93 in 10.0 mi North 18.4 mph 27.6 mph N/A   Overcast
2:55 AM 53.1 °F - 39.9 °F 61% 29.93 in 10.0 mi North 17.3 mph 26.5 mph N/A   Overcast
3:55 AM 49.1 °F - 29.8 °F 47% 29.99 in 10.0 mi North 24.2 mph 38.0 mph N/A   Overcast
4:55 AM 44.2 °F 35.2 °F 18.1 °F 35% 30.03 in 10.0 mi North 24.2 mph 40.3 mph N/A   Overcast
5:55 AM 42.6 °F 33.3 °F 16.3 °F 35% 30.05 in 10.0 mi North 23.0 mph 33.4 mph N/A   Overcast
5:58 AM 42.8 °F 34.0 °F 15.8 °F 34% 30.05 in 10.0 mi North 20.7 mph 33.4 mph N/A   Overcast
6:55 AM 41.5 °F 33.8 °F 14.4 °F 33% 30.07 in 10.0 mi North 15.0 mph 23.0 mph N/A   Overcast
7:55 AM 42.3 °F 33.6 °F 14.2 °F 32% 30.10 in 10.0 mi North 19.6 mph 24.2 mph N/A   Overcast
8:55 AM 41.9 °F 32.8 °F 13.8 °F 32% 30.13 in 10.0 mi North 20.7 mph 25.3 mph N/A   Overcast
9:55 AM 42.1 °F 33.9 °F 15.1 °F 34% 30.15 in 10.0 mi NNW 17.3 mph 24.2 mph N/A   Overcast
10:55 AM 47.7 °F - 19.6 °F 33% 30.13 in 10.0 mi NNW 17.3 mph 26.5 mph N/A   Clear
11:55 AM 51.1 °F - 22.1 °F 32% 30.12 in 10.0 mi NNW 17.3 mph 21.9 mph N/A   Clear
12:55 PM 52.3 °F - 23.2 °F 32% 30.09 in 10.0 mi NNW 16.1 mph - N/A   Clear
1:55 PM 53.4 °F - 24.3 °F 32% 30.07 in 10.0 mi North 12.7 mph - N/A   Clear
2:55 PM 53.2 °F - 23.0 °F 31% 30.06 in 10.0 mi North 13.8 mph - N/A   Clear
3:55 PM 52.2 °F - 21.9 °F 31% 30.07 in 10.0 mi NNW 10.4 mph - N/A   Clear
4:55 PM 50.7 °F - 21.6 °F 32% 30.06 in 10.0 mi North 8.1 mph - N/A   Clear
5:55 PM 46.9 °F - 22.6 °F 38% 30.08 in 10.0 mi North 4.6 mph - N/A   Clear
6:55 PM 44.2 °F 41.0 °F 22.5 °F 42% 30.09 in 10.0 mi North 5.8 mph - N/A   Clear
7:55 PM 41.2 °F 37.3 °F 22.1 °F 47% 30.12 in 10.0 mi North 5.8 mph - N/A   Clear
8:55 PM 39.9 °F 35.8 °F 22.3 °F 49% 30.12 in 10.0 mi North 5.8 mph - N/A   Clear
9:55 PM 38.1 °F 34.6 °F 21.0 °F 50% 30.13 in 10.0 mi NNE 4.6 mph - N/A   Clear
10:55 PM 38.7 °F 34.3 °F 18.9 °F 45% 30.12 in 10.0 mi NNE 5.8 mph - N/A   Clear
11:55 PM 36.7 °F 30.5 °F 18.3 °F 47% 30.13 in 10.0 mi NNE 8.1 mph - N/A   Clear